Theta_e
311 311 311 311 310 310 310 310 309 307 307 302 300 301 291 291 288 298 301 302 299 291 285 291 290 288 291 295 294 295 294 293 294 292 293 291 294 292 291 291 290 292 291 292 291 291 290 291 290 292 292 292 293 293 295 295 296 301 298 300 301 305 295 292 292 292 296 298 297 299 299 300 298 298 299 297 295 295 294 293 289 290 289 290 288 289 291
311 311 311 310 310 310 310 310 309 309 307 303 302 296 292 292 291 293 300 302 298 289 284 284 286 289 292 292 291 295 293 292 291 291 292 292 291 289 290 291 292 291 293 292 289 292 286 292 290 289 292 291 295 295 295 296 294 298 298 295 298 292 293 291 285 286 291 293 296 295 297 299 296 295 298 298 298 297 297 295 290 292 290 291 288 287 290
310 311 310 310 310 310 309 310 309 309 308 307 302 293 294 292 293 292 296 301 296 288 290 287 286 287 287 288 288 290 291 293 293 292 291 293 292 291 290 291 292 291 292 291 292 292 290 289 291 290 291 291 296 295 295 295 294 299 305 305 302 296 293 291 283 284 283 283 284 286 288 291 294 296 296 298 297 295 293 293 291 289 290 292 288 291 287
311 310 310 310 310 310 310 309 309 309 308 307 300 297 293 289 282 289 291 293 294 293 295 292 288 286 286 285 287 290 287 293 294 293 291 293 292 292 292 293 294 290 290 288 289 289 291 289 288 288 288 290 293 294 294 294 294 303 305 304 300 295 296 294 292 289 287 289 289 295 297 294 292 295 296 296 298 298 297 295 291 290 287 291 292 294 291
311 310 310 310 310 309 309 309 309 309 307 307 299 296 293 293 284 286 284 291 290 289 290 289 290 286 289 281 287 285 288 291 292 295 288 293 291 291 291 290 288 288 289 287 287 289 287 290 289 288 287 291 292 294 293 293 301 304 300 302 298 292 288 292 292 293 293 294 292 294 296 292 294 294 296 298 297 297 296 294 293 293 290 290 294 294 295
311 310 310 310 310 309 309 309 309 308 307 306 300 291 293 285 290 291 293 286 282 285 285 289 288 290 290 285 289 286 286 288 286 292 292 292 293 288 289 290 290 289 288 290 285 287 285 287 286 289 289 290 291 290 293 293 299 300 294 298 295 290 288 292 292 291 292 292 293 295 295 295 295 296 296 296 298 296 295 296 295 296 295 293 295 294 295
311 311 310 310 310 309 309 309 308 307 306 305 300 291 294 292 292 291 296 285 288 287 288 290 289 287 288 288 288 285 285 285 289 288 289 290 290 290 284 287 288 289 290 290 287 286 281 282 288 286 287 288 288 287 290 293 295 295 293 293 296 292 287 291 293 289 291 292 293 294 294 294 294 294 295 297 297 297 297 297 297 297 297 297 297 295 297
311 311 310 310 310 310 309 309 308 307 305 304 299 296 290 289 289 287 293 291 289 289 289 289 288 285 290 284 286 285 286 285 288 289 288 285 287 292 287 288 289 289 288 288 287 288 289 288 284 289 288 287 289 288 289 289 292 294 291 292 292 290 288 295 290 289 289 291 294 294 293 292 291 293 295 296 297 298 298 297 298 298 297 298 297 296 296
311 310 310 310 310 310 309 308 307 305 305 300 298 296 296 294 295 296 289 286 288 290 289 287 286 285 286 284 286 287 287 286 288 287 291 288 287 288 287 289 289 290 289 288 288 290 290 290 289 291 290 285 291 288 289 292 288 291 290 291 292 292 286 292 289 285 285 290 291 291 292 292 292 293 295 296 297 296 298 296 298 297 296 296 296 296 295
310 310 310 310 310 309 309 308 309 306 305 300 299 293 298 297 300 298 293 284 290 286 287 287 286 282 287 287 287 286 286 288 289 285 290 291 291 290 290 290 289 288 288 288 289 292 292 292 293 293 293 294 294 294 293 293 290 289 290 292 289 289 288 286 287 284 283 289 290 290 291 292 291 294 296 297 298 299 300 299 300 301 300 297 295 296 300
311 310 310 310 310 310 309 309 308 306 304 299 297 296 297 295 294 295 294 285 287 287 285 284 284 287 288 289 287 289 287 288 288 284 285 290 290 292 291 290 288 287 287 291 295 295 295 296 296 296 295 294 293 293 294 295 294 293 291 291 290 290 290 287 288 281 283 288 289 291 289 283 288 298 299 300 299 299 297 299 300 298 300 300 302 302 303
310 310 310 310 310 309 309 309 309 307 304 303 303 299 300 300 298 295 290 284 285 288 284 282 284 287 286 288 288 287 286 287 288 291 287 288 290 290 290 290 289 283 291 296 296 296 297 297 296 295 294 293 293 293 293 292 293 296 295 291 289 290 291 287 288 284 282 287 289 287 282 285 297 298 303 309 309 307 304 299 300 301 299 300 299 300 302
310 310 310 310 309 310 310 309 308 308 307 304 303 298 302 304 297 293 291 287 283 286 284 285 289 289 289 288 287 287 289 290 290 291 290 288 288 289 291 290 288 290 296 294 295 294 290 287 289 290 290 291 291 291 291 291 291 294 295 295 291 288 288 288 289 286 288 285 284 280 282 293 296 299 303 311 308 309 308 303 300 300 299 298 299 300 300
310 310 310 310 310 310 310 309 308 308 308 306 302 302 303 302 296 294 292 287 286 289 289 287 287 286 287 287 288 289 289 288 289 290 287 290 289 289 292 294 293 297 296 295 293 292 286 285 281 283 283 286 285 285 288 291 292 292 292 294 294 292 290 289 284 289 281 283 283 284 291 292 295 300 303 306 303 305 306 300 303 305 308 305 302 301 301
311 310 310 310 310 309 309 309 309 308 307 307 304 303 302 302 301 296 297 292 285 288 289 283 286 287 288 288 289 286 286 286 286 285 290 292 290 292 293 295 297 296 296 293 288 289 286 284 278 277 279 276 273 276 289 286 292 293 293 293 294 294 289 289 285 284 288 283 281 283 284 283 289 302 307 310 312 311 310 306 303 306 309 313 309 304 302
311 311 310 310 310 309 309 309 309 308 308 307 304 302 303 304 303 300 296 292 289 282 287 291 291 290 288 288 289 287 285 284 284 285 286 287 289 292 295 296 296 296 295 295 288 287 286 282 279 278 276 276 282 283 278 284 286 292 294 294 294 294 294 292 287 286 286 285 281 281 282 286 293 300 306 310 313 313 312 303 297 304 315 319 317 313 308
311 311 311 310 310 310 310 309 309 308 308 307 301 302 300 304 302 299 296 294 291 285 292 293 292 291 289 287 288 286 287 284 286 283 283 284 287 289 291 295 297 296 295 291 289 288 286 284 285 283 283 286 281 277 284 284 284 287 292 292 291 290 290 290 287 286 288 285 283 282 288 290 297 305 309 312 315 315 305 293 291 307 316 319 319 316 312
311 311 311 311 310 310 310 309 309 309 308 307 304 301 300 303 302 301 298 294 289 289 292 294 291 288 287 288 286 289 290 290 289 290 287 288 287 287 290 293 290 295 297 287 289 286 284 283 280 281 279 287 287 289 278 283 282 284 287 287 286 287 288 289 284 286 288 290 285 289 291 298 305 307 311 314 315 306 295 290 297 311 315 320 321 320 320
311 311 311 311 310 310 310 310 309 309 308 307 304 302 301 302 303 302 298 294 291 286 294 297 297 293 293 295 292 292 292 291 290 286 285 285 286 292 292 291 293 286 291 288 289 285 284 283 287 283 281 285 288 281 288 284 282 288 291 288 289 288 289 290 289 286 285 287 285 285 291 297 308 311 313 314 308 294 292 304 313 315 317 319 321 320 321
311 311 311 311 311 311 310 310 310 309 309 308 305 299 300 301 302 302 297 292 294 291 293 294 295 292 295 292 289 288 289 290 290 287 286 283 292 292 288 283 293 292 287 290 284 288 283 281 283 286 283 284 286 292 285 286 290 286 287 290 288 291 288 285 286 289 291 292 287 287 282 294 312 311 311 314 304 305 312 312 314 316 315 315 318 320 319
311 311 311 311 311 311 311 310 310 310 309 309 306 301 299 302 302 303 302 298 294 289 290 297 297 295 295 293 294 294 291 288 289 287 289 289 292 290 280 282 286 287 283 285 279 281 284 282 284 283 288 287 287 288 280 283 286 291 290 290 290 296 287 290 293 295 288 288 286 286 295 304 312 311 303 311 314 316 316 314 311 315 314 313 316 317 319
310 311 311 312 311 311 311 311 311 310 309 309 307 303 299 302 303 303 302 301 295 292 294 297 299 297 298 299 298 298 296 295 295 295 291 289 293 291 290 290 289 288 290 291 286 286 288 287 290 285 282 284 290 283 286 282 279 287 294 295 284 298 294 297 290 298 295 293 296 302 308 311 313 314 314 316 317 319 317 315 313 314 314 316 314 314 316
312 311 311 312 312 312 312 311 311 310 310 309 307 302 299 301 301 306 303 297 299 300 300 298 299 299 301 301 302 302 300 301 299 297 296 292 289 291 290 289 288 292 292 291 286 286 286 286 283 287 286 287 285 284 287 286 283 287 284 295 294 297 296 298 296 294 302 305 306 311 310 311 312 315 317 316 317 319 318 315 312 314 315 315 314 314 314
311 312 312 312 312 312 312 312 311 311 310 310 307 302 301 302 302 301 301 299 295 291 294 296 292 290 292 293 298 301 302 301 301 299 300 298 289 289 292 293 295 294 292 294 297 291 290 290 289 291 283 289 290 284 281 281 283 288 288 287 292 296 299 297 294 298 294 290 309 309 308 311 312 314 318 319 318 318 318 316 315 314 314 315 316 315 314
311 312 312 312 312 312 312 312 312 311 311 310 309 308 306 302 303 302 297 291 291 289 284 288 291 295 297 299 300 298 300 303 305 303 300 298 295 291 290 294 296 292 291 295 299 296 295 288 289 288 283 291 290 281 288 284 285 293 284 287 288 287 299 291 292 294 294 295 305 310 312 311 313 313 313 315 317 318 318 319 318 316 316 316 317 317 315
311 311 312 312 312 312 312 312 312 311 311 311 309 303 301 301 303 303 301 300 298 294 286 285 290 300 300 297 295 298 300 301 301 302 301 299 299 297 295 296 296 297 295 301 298 293 291 289 290 290 286 287 295 286 285 290 289 293 288 286 291 292 296 286 292 290 294 297 302 309 310 310 312 314 314 317 318 318 317 317 318 318 316 315 316 317 317
311 312 312 312 312 312 312 312 312 311 311 311 309 306 304 303 304 302 299 298 292 287 289 285 290 295 297 294 299 300 301 300 299 298 299 301 299 299 297 295 294 295 295 295 298 295 293 291 290 287 290 290 294 291 292 289 288 285 286 290 294 293 288 293 292 288 289 291 297 308 300 300 307 312 315 316 318 318 316 317 316 316 316 316 315 316 318
311 312 312 312 312 312 312 312 312 311 310 311 309 307 306 304 304 304 304 302 295 287 288 288 288 292 297 294 299 300 301 302 300 298 297 298 299 298 297 295 294 293 293 292 290 291 290 288 287 292 293 294 291 288 294 294 293 287 286 289 294 291 292 293 290 291 291 299 305 307 307 307 309 312 316 318 318 317 315 315 315 316 317 318 316 314 315
311 312 311 311 312 312 312 312 311 311 310 309 307 305 304 305 306 306 305 305 302 296 292 292 295 292 286 292 300 298 299 300 299 298 297 297 297 297 297 296 294 294 294 294 292 291 289 290 293 292 291 298 293 289 291 285 285 284 289 295 297 297 298 297 297 299 301 303 302 304 308 307 310 314 316 316 317 317 316 317 318 317 317 318 317 316 315
311 311 311 311 311 311 311 312 311 311 310 307 304 300 296 298 304 304 306 305 303 299 291 287 284 289 298 298 295 297 298 300 299 298 297 296 296 296 297 296 296 298 296 293 292 288 290 290 292 295 298 301 293 290 287 287 286 288 295 297 299 300 300 303 304 301 299 306 309 311 311 311 313 316 316 316 318 317 316 317 317 317 318 319 317 316 317
311 311 311 311 311 311 311 311 311 310 309 305 301 294 290 287 297 306 307 306 305 299 294 292 287 294 293 299 298 296 297 299 298 297 296 296 296 297 298 297 297 298 292 293 292 291 292 289 291 294 299 300 297 289 287 287 286 288 293 296 298 300 300 301 303 305 305 305 307 310 313 314 315 315 314 315 317 319 317 318 320 322 321 318 316 316 317
310 310 310 310 310 310 310 310 310 310 308 303 298 295 296 297 303 306 307 306 304 298 292 286 287 288 288 293 299 302 300 300 300 299 299 301 297 298 297 296 294 297 296 292 292 291 291 292 291 292 293 300 298 291 291 288 286 287 294 297 300 301 302 303 304 306 308 310 309 308 309 312 313 311 310 315 316 316 315 315 315 316 319 317 318 318 318
310 310 310 310 310 310 310 310 310 309 306 307 308 308 308 307 308 308 307 305 301 297 298 290 284 288 286 290 297 300 302 301 300 301 298 303 299 299 296 298 297 295 302 295 288 287 293 293 293 291 294 301 294 293 290 288 289 294 296 298 299 301 303 305 307 308 309 310 311 305 307 309 311 313 314 315 315 314 314 314 315 315 316 316 316 317 317
310 309 309 309 310 310 309 309 309 309 308 305 300 302 306 307 307 308 307 304 300 300 297 288 284 284 285 298 290 298 304 297 296 298 292 301 302 297 295 297 297 293 294 292 294 292 296 297 294 294 298 296 298 293 288 291 295 296 298 300 303 304 305 305 306 307 308 309 312 312 312 313 314 314 313 313 313 315 315 315 315 314 314 314 314 314 314
309 309 309 310 310 310 310 310 307 305 301 302 302 305 308 309 308 308 307 302 293 290 290 288 289 284 284 287 286 293 306 299 293 298 294 297 304 297 296 292 294 291 293 299 292 291 290 294 299 293 290 296 293 289 290 293 295 298 299 301 302 302 302 302 305 308 309 311 313 313 314 313 312 311 311 312 312 313 313 314 314 314 312 312 312 313 313
309 309 310 310 310 309 308 308 306 303 300 300 302 309 311 312 311 309 307 306 300 290 287 287 287 284 286 282 283 294 303 295 298 299 299 299 299 302 300 294 287 293 300 293 289 292 291 299 294 287 293 291 289 291 293 295 296 297 299 299 300 300 301 302 304 307 310 311 313 314 313 312 311 310 311 312 312 313 313 312 313 313 312 312 312 313 314
309 310 310 309 307 305 299 301 306 304 302 305 308 312 313 312 311 309 305 302 304 304 291 286 284 285 287 286 290 295 300 289 300 297 298 296 294 299 298 295 289 295 294 291 292 291 296 304 295 290 291 289 291 296 297 298 298 297 298 299 301 303 305 306 309 310 309 310 311 311 311 311 311 311 311 311 312 313 312 312 312 312 312 312 314 314 314
309 309 303 299 297 294 294 297 301 306 312 311 311 308 305 305 297 298 299 295 300 300 295 292 285 287 291 287 284 297 298 294 300 294 296 300 295 293 299 295 295 295 286 289 293 300 297 295 293 291 291 295 297 298 299 299 300 301 301 302 304 307 308 309 310 309 308 307 307 308 310 310 309 310 310 310 312 312 312 313 313 314 315 315 315 316 317
307 302 298 297 295 294 295 300 307 311 308 309 308 301 297 300 296 293 293 295 297 290 294 289 286 288 287 286 289 299 297 293 291 294 289 299 295 290 297 289 296 295 287 288 293 302 290 291 293 292 290 295 295 297 301 302 303 304 306 307 309 310 311 310 311 310 310 308 308 310 310 308 308 309 311 311 312 313 313 313 314 315 316 316 317 318 318
300 300 297 295 294 297 304 307 310 306 305 299 300 298 293 299 293 288 298 289 287 291 292 285 291 290 291 288 289 290 302 294 287 289 292 295 302 291 295 293 293 290 283 284 289 299 290 285 290 289 287 294 296 300 302 304 306 308 309 310 311 312 312 312 312 314 314 313 314 313 313 313 314 313 312 313 313 313 314 315 316 317 317 318 319 318 317
301 300 297 295 299 301 304 306 305 302 300 295 295 297 295 288 295 297 294 289 288 290 297 294 297 294 295 295 295 290 302 304 303 302 296 289 300 298 291 285 296 287 284 284 295 296 292 288 287 285 289 295 298 304 307 308 308 309 310 311 312 312 312 312 313 315 315 313 313 313 314 314 314 314 315 316 315 315 315 316 316 317 318 318 318 317 318
304 303 304 306 306 305 305 302 300 297 297 299 292 287 289 292 296 295 295 287 290 297 298 297 293 297 296 295 295 298 300 306 304 299 293 286 296 292 286 288 289 284 284 291 295 291 288 284 285 286 294 298 303 305 306 306 308 309 310 311 312 312 312 312 312 313 315 314 314 315 316 316 315 315 316 316 316 316 316 317 317 318 317 318 319 318 318
307 307 306 301 301 297 299 290 294 296 287 288 288 288 292 288 292 292 294 299 304 300 300 307 303 306 306 308 301 304 302 306 300 297 293 289 297 295 287 285 286 284 288 295 290 285 285 285 284 290 297 299 304 305 306 307 308 309 310 311 312 312 313 312 312 312 313 314 313 314 314 314 314 314 317 317 317 317 318 318 317 316 316 317 317 318 318
306 304 301 297 292 294 297 289 297 296 291 290 288 286 289 288 292 295 293 295 299 299 302 298 301 301 297 305 302 301 302 303 305 301 296 297 293 286 286 285 285 294 298 289 286 285 285 286 291 296 301 303 305 306 307 307 307 308 309 311 311 312 312 312 312 312 312 313 313 314 315 314 314 315 316 316 317 316 315 316 317 317 317 317 317 316 318
298 292 289 287 288 293 293 289 294 289 287 290 291 291 291 288 292 294 293 301 302 298 302 303 303 302 300 303 304 303 303 298 305 299 293 296 291 293 289 287 295 294 286 285 286 286 287 289 297 300 302 302 304 305 307 307 307 306 307 309 310 311 311 311 311 311 311 312 313 314 313 314 314 314 315 315 316 317 316 316 317 317 316 316 316 316 316
293 291 289 286 288 290 289 288 290 287 293 295 293 294 294 295 296 296 302 305 301 301 301 302 302 303 299 301 297 296 300 301 296 296 298 298 292 288 296 300 296 287 286 286 285 285 288 294 298 299 301 302 303 304 305 305 306 306 306 305 306 307 308 309 309 309 310 310 311 311 312 313 313 314 314 315 315 316 316 316 318 317 317 316 314 314 314
291 294 286 287 287 289 294 289 291 293 294 294 296 297 296 298 299 300 302 303 301 303 303 304 303 303 298 298 298 298 298 299 294 295 298 291 290 294 299 291 284 285 285 286 286 287 291 296 299 301 302 302 302 303 303 303 303 303 304 305 306 306 307 307 307 308 308 309 309 309 310 310 312 313 313 313 313 313 314 314 314 314 313 311 312 312 312
290 292 289 287 285 288 291 294 296 296 297 296 297 298 298 299 296 298 302 303 303 304 302 302 300 300 298 302 301 294 295 296 294 293 297 293 295 290 287 289 286 288 291 288 289 294 295 298 299 300 301 302 302 301 301 302 302 302 302 303 303 303 304 305 305 306 306 307 307 307 308 309 309 309 309 309 310 310 311 311 312 311 310 310 310 309 309
293 288 289 287 291 291 291 297 294 293 296 298 299 299 299 298 297 299 302 303 302 301 302 302 300 299 294 297 294 295 292 296 291 289 294 292 286 284 285 285 286 286 292 295 294 296 297 300 301 301 301 301 301 301 301 302 302 301 302 302 302 302 303 303 304 305 305 305 306 306 307 308 309 309 308 308 307 308 309 309 309 309 310 310 309 309 309
293 293 292 288 290 293 297 297 295 294 296 297 297 297 298 298 298 300 303 302 302 302 302 302 301 295 293 294 289 291 291 295 295 292 292 289 289 288 287 285 286 287 290 295 296 298 300 301 300 299 299 299 301 299 300 300 302 302 301 301 301 302 302 302 303 304 304 305 305 305 306 306 306 307 307 306 307 308 308 307 307 307 307 308 307 307 308
290 288 290 295 293 292 294 292 292 292 293 294 295 296 297 297 298 299 304 302 302 300 299 295 292 291 289 290 289 287 289 298 295 291 291 289 294 289 285 285 288 293 295 298 299 300 300 301 301 299 299 299 299 299 299 300 300 300 300 300 301 301 301 301 302 302 302 303 304 307 304 305 305 306 307 308 307 306 305 306 306 305 305 305 305 304 303
288 289 292 296 296 296 295 295 295 293 294 295 296 298 299 297 299 301 304 302 300 297 294 294 292 289 288 289 291 295 298 294 290 292 289 292 296 289 288 290 293 296 297 297 298 300 302 301 301 302 300 300 301 299 300 300 300 300 299 300 300 300 300 300 300 301 301 301 302 303 304 305 306 306 307 306 306 304 303 302 304 304 304 303 303 303 303
Wind_Speed
22 22 22 21 21 18 16 15 13 13 13 7 7 3 4 5 6 14 17 11 7 4 3 5 6 5 6 10 7 10 8 4 6 6 4 5 2 2 2 2 2 1 1 1 1 2 2 4 3 5 3 3 4 5 11 10 7 2 4 3 1 4 1 1 6 3 6 7 4 5 4 2 6 8 6 9 12 11 9 8 6 6 2 3 1 9 7
22 22 22 21 19 17 14 13 12 12 9 4 5 4 5 6 7 6 6 9 6 5 8 7 7 6 9 9 8 8 6 11 13 9 10 5 4 2 2 3 2 1 2 2 2 5 2 4 6 4 2 3 2 12 11 10 5 7 4 4 7 2 1 1 2 2 1 4 5 6 4 1 1 3 7 8 9 12 10 4 3 6 8 8 7 18 5
22 22 21 19 18 16 13 12 11 10 7 5 3 5 5 6 3 4 6 5 7 8 6 6 5 8 10 9 8 11 8 7 9 12 7 9 7 5 3 3 3 4 3 3 4 8 5 1 3 3 2 2 3 9 11 9 4 5 6 10 3 1 1 1 3 10 10 9 10 7 7 3 6 7 4 9 13 12 8 14 3 10 6 9 7 12 3
21 22 20 19 18 15 12 10 10 8 5 5 2 2 3 4 7 4 4 3 4 4 5 7 7 6 10 10 5 7 7 9 11 13 6 13 12 7 5 6 6 9 5 5 5 6 7 5 2 4 4 3 3 6 11 6 4 7 11 11 4 0 1 0 1 1 0 1 4 4 3 6 3 8 14 10 8 14 15 8 9 15 6 11 11 10 2
20 20 20 18 16 14 10 9 9 5 4 3 1 2 0 2 1 6 8 7 2 6 3 7 8 7 9 3 5 8 9 6 8 11 6 12 11 5 11 10 9 7 5 3 3 4 7 5 3 3 3 2 4 8 7 5 8 12 7 11 2 2 3 1 1 2 1 2 7 12 4 8 9 10 12 12 9 10 16 15 16 8 7 15 9 8 10
19 20 19 17 14 13 10 8 8 3 3 1 1 1 1 1 1 3 1 2 4 9 7 10 9 9 8 3 2 7 10 9 7 6 6 12 10 7 2 12 10 8 7 4 2 2 2 1 1 3 3 4 8 7 5 3 9 10 4 6 2 2 0 1 4 3 4 6 9 12 9 6 8 10 11 15 15 10 17 19 7 10 13 18 8 8 8
19 19 19 17 14 12 10 9 6 1 0 2 1 2 1 2 2 4 1 1 3 3 9 10 8 10 8 4 5 6 7 9 7 4 6 6 7 9 4 9 9 7 7 4 0 2 2 2 1 2 2 6 5 5 4 2 8 8 5 5 1 1 2 3 1 4 6 7 8 7 8 7 8 12 14 14 14 17 14 12 12 13 11 6 12 9 13
19 19 18 17 14 12 9 9 3 1 2 1 1 2 2 2 2 2 2 4 5 6 3 4 5 7 8 4 3 2 5 9 11 7 3 4 3 6 6 10 10 7 4 4 1 1 2 2 1 2 4 5 0 2 2 3 4 7 4 3 4 1 2 5 2 2 6 9 6 5 6 9 13 13 12 14 14 13 13 10 13 10 12 11 12 5 9
20 19 18 17 14 12 8 7 4 0 5 1 1 2 3 2 1 2 4 6 4 2 2 3 4 5 4 3 5 7 7 9 10 11 7 7 3 8 9 7 6 3 4 3 3 2 4 4 4 6 5 4 3 0 3 3 5 4 2 1 3 2 3 1 1 4 6 4 5 11 13 14 13 13 11 10 9 11 9 9 8 9 11 9 14 17 11
20 19 18 17 14 13 12 9 6 0 4 1 2 3 1 2 0 1 1 3 3 4 2 3 2 2 1 3 8 6 11 11 11 7 3 1 6 8 9 6 4 3 2 3 1 5 7 7 8 5 7 7 7 5 7 5 4 1 1 2 2 2 2 1 1 3 4 8 5 10 15 11 10 11 3 5 9 14 12 12 9 13 10 11 17 17 4
20 19 19 18 17 14 13 11 7 4 3 2 2 3 2 2 3 2 2 4 2 4 1 2 2 3 8 8 8 8 8 9 8 5 4 7 9 8 6 6 5 4 4 1 2 5 8 9 9 7 7 10 10 8 8 11 9 8 3 1 2 3 3 2 3 2 2 9 10 7 4 7 8 5 2 3 6 7 10 15 14 9 10 14 9 9 8
20 19 19 18 17 15 14 12 9 3 6 2 2 4 4 3 4 3 3 3 6 1 1 3 4 6 7 9 6 9 9 9 8 6 9 9 11 8 5 4 1 4 4 1 5 6 8 7 7 6 8 9 11 11 12 12 12 10 9 8 5 3 2 3 2 2 3 5 6 4 7 11 4 16 4 5 5 6 7 13 14 14 12 11 8 6 5
20 19 19 17 16 14 12 13 10 6 5 3 3 5 1 1 3 3 3 4 6 4 6 5 3 7 8 10 9 8 7 7 7 10 9 9 8 6 3 3 3 4 5 10 8 6 3 6 5 6 6 5 7 11 13 14 15 14 11 12 8 6 6 3 1 4 1 2 1 3 9 2 16 11 4 9 2 12 12 9 8 10 8 6 9 10 8
20 19 19 18 17 16 12 11 10 8 4 5 4 4 4 3 3 3 2 3 5 3 2 7 7 8 5 5 6 8 7 9 7 5 5 2 6 10 8 3 3 6 8 5 5 2 3 3 3 5 4 1 1 1 10 17 17 16 17 16 14 12 4 2 4 4 4 5 5 8 10 14 8 4 4 8 5 8 5 7 10 4 4 5 6 9 10
21 20 19 18 18 16 13 11 8 9 7 4 4 5 5 5 4 3 2 2 7 7 5 7 1 3 5 7 5 8 8 7 6 5 3 5 4 3 3 4 7 9 5 3 3 2 1 1 3 3 5 3 2 3 0 1 6 17 18 15 14 13 11 6 7 4 8 7 4 3 3 4 4 3 2 1 2 5 5 5 9 6 5 2 4 6 9
21 20 20 18 18 17 15 13 7 5 8 4 4 4 5 4 5 5 4 4 3 6 3 6 6 6 6 8 9 9 7 6 5 6 7 2 3 4 4 7 8 6 3 1 0 1 1 2 4 2 2 2 3 3 5 3 5 3 13 15 14 13 12 7 6 3 6 5 6 5 6 7 4 4 3 3 2 0 1 4 8 2 11 10 6 9 8
21 21 20 20 18 17 16 15 10 7 7 5 3 3 4 3 4 4 4 3 4 6 3 6 4 6 7 7 3 3 2 3 4 7 6 4 4 7 10 6 4 2 1 0 0 1 2 0 2 2 4 1 1 6 5 3 4 4 2 6 13 13 11 9 9 9 5 6 7 9 3 4 2 4 6 8 4 1 4 2 6 5 15 14 10 10 10
21 21 21 21 20 18 17 15 14 10 7 5 5 3 4 3 5 3 4 5 4 6 6 9 9 5 5 4 4 4 2 3 4 3 5 6 6 5 4 4 5 3 0 1 0 1 2 2 2 4 4 4 3 2 4 4 2 2 2 3 5 8 8 10 13 11 9 10 5 1 4 4 3 5 8 7 5 2 5 9 3 13 14 13 10 10 7
23 23 22 22 21 20 18 16 14 12 9 7 3 3 5 5 4 5 3 5 4 6 3 2 3 6 3 2 6 5 4 7 7 6 5 6 2 1 3 5 2 3 3 0 1 1 2 3 2 1 2 2 3 2 3 3 3 2 5 5 3 8 6 6 9 12 11 8 9 6 3 5 1 4 2 4 2 4 7 4 9 12 13 13 10 10 9
24 23 22 22 22 21 20 18 16 13 12 6 6 5 4 3 4 7 5 5 4 10 7 8 5 13 6 8 9 7 4 4 5 5 4 7 2 8 7 5 2 0 3 0 0 2 1 2 1 1 1 1 1 3 4 6 5 1 4 5 5 3 3 7 11 7 8 6 7 5 9 2 1 5 1 6 2 3 5 11 10 8 10 11 11 9 9
24 23 22 22 22 21 21 20 17 15 12 11 4 4 5 3 5 5 7 7 6 10 7 6 9 13 10 11 12 11 9 9 6 6 7 7 0 2 4 2 1 2 1 0 0 1 0 2 1 1 3 1 3 3 3 5 6 5 8 6 5 5 2 3 5 8 7 9 11 6 3 6 5 2 4 1 3 4 7 8 10 5 5 10 8 9 8
26 24 23 23 23 22 21 20 18 16 13 12 6 3 6 4 4 4 5 5 6 9 7 3 4 8 10 11 10 10 12 13 13 9 7 7 4 7 5 5 4 0 1 1 1 2 1 2 1 1 2 3 1 4 3 6 5 1 1 3 7 5 4 2 4 4 4 3 4 1 3 6 2 4 3 3 1 4 7 8 8 6 5 5 5 9 10
24 24 23 23 22 22 21 19 19 17 15 14 7 5 6 2 3 3 4 6 5 7 7 8 8 11 11 14 16 15 14 12 11 9 9 8 8 6 8 8 7 3 3 2 5 3 4 2 5 3 4 2 3 3 3 5 5 3 6 2 6 10 8 10 5 11 10 13 14 5 3 3 4 3 5 6 5 4 5 7 7 5 5 5 4 5 7
25 24 23 22 23 21 21 20 19 17 16 15 10 5 5 5 5 2 3 5 5 7 8 8 4 7 8 12 10 9 11 11 13 15 11 9 9 6 5 7 2 3 3 6 4 4 2 2 2 1 4 3 1 3 4 5 4 5 7 8 2 2 5 6 5 8 4 7 6 4 4 3 2 5 7 8 7 4 5 6 6 4 6 7 6 5 5
25 23 23 23 23 22 21 19 18 16 15 16 12 7 5 4 3 5 4 5 2 2 8 6 9 14 12 11 9 6 9 10 9 11 10 11 13 10 8 5 9 8 7 4 3 5 3 5 3 3 6 2 4 5 4 5 7 1 5 7 6 5 5 13 8 11 9 9 9 3 2 2 3 4 5 8 6 6 4 3 6 4 3 4 5 6 6
26 26 24 24 23 22 21 19 18 15 13 14 12 5 5 6 5 6 3 4 3 3 6 8 7 2 0 3 6 7 5 8 10 12 12 13 14 14 11 3 3 3 2 1 2 4 3 3 4 4 4 4 4 4 4 7 6 4 8 15 8 9 10 7 5 7 10 15 15 9 0 2 2 5 6 7 5 4 7 4 3 5 5 5 5 6 6
24 25 25 23 24 23 21 20 17 14 13 11 8 6 7 5 7 9 6 4 3 6 7 10 7 6 4 10 9 4 6 7 7 9 10 12 12 11 10 7 8 5 5 5 2 3 2 5 5 7 6 5 4 4 3 4 5 6 7 12 6 5 11 9 9 9 10 9 10 6 7 4 2 4 7 7 7 1 5 5 8 9 8 8 7 7 6
26 26 26 25 24 24 21 20 18 15 11 10 8 6 7 8 8 10 9 8 8 8 4 6 6 5 10 19 13 7 7 6 8 9 9 10 12 12 11 11 8 7 6 6 5 5 5 7 8 4 3 3 4 6 5 6 5 6 10 12 5 6 11 7 8 6 10 9 8 8 6 5 7 9 5 7 8 3 4 5 6 7 7 8 8 10 11
27 26 27 26 24 23 22 20 17 13 10 7 4 5 7 9 9 11 12 10 9 8 8 10 9 8 7 6 3 6 4 6 7 8 8 9 11 11 11 12 11 10 8 7 6 4 5 7 3 4 3 3 2 5 1 6 4 9 12 9 6 10 11 13 14 13 17 17 17 16 10 7 6 6 8 8 7 8 4 3 4 4 6 6 6 9 9
28 29 30 26 25 22 21 19 16 11 7 4 3 3 4 6 8 10 12 12 9 5 6 5 6 5 3 3 7 7 5 4 7 8 9 8 9 10 10 11 10 10 8 7 6 7 7 5 4 4 5 7 2 2 4 4 6 11 12 10 12 11 12 11 11 12 13 13 11 9 11 8 7 11 10 8 3 6 8 3 4 3 3 6 6 8 9
30 30 29 28 25 22 21 18 14 10 7 3 3 2 1 4 2 4 10 11 10 7 3 3 8 6 8 4 5 11 9 4 5 6 9 10 10 11 10 9 8 9 8 8 7 9 3 5 4 3 5 10 6 4 4 4 6 6 15 13 9 9 10 12 12 13 15 17 15 13 12 3 5 7 7 7 5 3 6 3 2 4 3 4 6 8 7
31 30 30 29 24 20 18 16 12 9 7 9 8 7 5 4 2 6 10 10 9 5 4 4 4 3 5 4 3 1 4 6 4 3 3 5 7 8 8 11 8 10 7 6 6 2 7 8 7 6 4 7 8 4 4 7 11 14 18 11 7 10 12 14 14 13 14 14 12 10 6 5 5 9 7 7 7 4 6 5 3 2 3 4 4 5 4
31 29 28 25 23 21 17 13 10 9 9 10 12 12 11 8 3 11 11 9 6 3 2 3 4 2 4 4 5 5 4 1 2 2 3 4 4 5 5 7 6 5 9 5 3 5 4 6 6 8 8 9 5 3 7 11 15 19 17 13 12 12 13 13 14 12 11 8 7 7 4 8 7 1 8 8 8 9 8 8 6 3 1 5 6 5 5
28 28 28 27 25 20 15 10 7 10 7 4 6 11 11 14 9 9 11 7 2 2 2 2 3 3 5 3 6 3 3 1 2 3 3 2 2 3 4 4 5 4 5 9 2 2 2 1 4 4 2 6 5 4 8 15 17 14 13 13 11 9 8 11 10 8 6 7 7 9 3 2 3 4 8 8 7 5 7 7 7 8 3 4 5 5 2
28 28 28 26 23 16 6 3 4 4 4 4 6 7 7 9 15 16 14 5 4 2 3 3 2 4 3 2 3 4 0 0 2 2 2 2 0 2 1 3 3 5 2 2 2 3 4 4 2 2 6 2 4 8 10 15 14 10 10 12 10 8 9 9 5 2 4 3 4 7 6 9 8 6 7 8 8 7 8 6 5 8 7 4 4 5 5
29 28 26 23 14 1 4 4 2 3 2 4 5 1 7 11 12 11 11 7 3 3 3 3 3 5 2 4 4 2 1 4 2 1 2 1 1 1 2 2 2 4 0 2 4 2 4 1 2 4 3 4 9 9 11 8 9 11 10 13 13 9 9 10 13 12 8 5 5 7 8 9 10 8 7 7 7 7 7 7 3 5 7 7 6 5 3
29 28 22 8 1 1 0 2 2 4 4 2 5 10 4 6 4 3 5 4 2 0 3 2 3 5 5 3 2 3 2 3 0 1 1 2 1 0 1 0 2 1 1 2 2 3 3 1 2 5 5 9 10 5 6 8 10 13 14 13 12 10 9 8 8 8 7 5 5 8 8 9 9 8 8 8 7 7 9 8 6 8 9 9 7 6 4
29 20 3 2 1 2 1 1 2 2 8 13 11 4 2 0 1 1 2 1 1 2 2 2 6 2 3 3 5 3 1 3 1 2 2 1 0 1 1 0 1 0 3 2 4 2 1 1 4 5 8 7 11 12 14 12 11 10 9 10 10 9 9 8 5 4 4 4 7 9 8 10 9 7 9 8 8 7 6 6 6 5 6 7 8 7 6
13 4 2 1 1 1 2 5 2 14 9 4 0 1 0 1 1 1 3 2 1 3 2 4 5 5 4 4 6 2 3 3 3 1 2 2 1 1 0 1 0 1 2 2 2 2 3 2 2 3 6 6 7 11 7 8 8 9 9 8 6 7 7 7 4 5 5 5 7 11 12 12 12 10 8 8 5 5 4 5 6 6 6 7 7 7 8
5 8 5 5 1 4 3 4 12 7 1 1 0 1 2 0 1 2 2 1 2 2 2 6 4 5 10 10 6 3 3 5 3 2 2 2 1 0 1 2 1 1 2 2 2 3 3 3 1 3 7 6 7 9 8 7 8 8 7 6 6 7 4 4 3 2 2 5 7 6 5 9 11 11 10 9 8 7 6 6 7 7 7 8 8 8 8
4 2 3 2 5 4 6 9 5 0 1 1 1 1 1 2 1 1 1 2 2 3 3 4 1 3 4 4 4 5 2 2 1 2 3 1 2 1 1 0 2 1 2 3 2 2 2 3 2 2 6 6 10 11 5 5 8 7 4 5 6 8 8 7 5 1 5 9 8 7 7 7 8 8 8 9 8 8 8 8 8 8 9 9 10 9 7
4 4 6 7 8 8 6 2 1 2 1 1 2 3 0 2 1 0 1 1 3 1 2 3 5 1 3 9 5 3 3 2 1 1 2 1 1 1 1 1 2 0 2 2 4 3 2 3 3 4 6 8 8 9 8 7 8 9 9 8 7 7 10 10 9 8 6 7 5 6 7 7 4 5 7 9 9 9 8 9 10 9 9 8 8 8 9
17 12 3 3 2 2 1 2 3 2 2 3 3 3 3 3 4 5 3 0 1 2 4 2 3 1 2 3 2 2 0 2 2 2 1 1 1 1 1 1 0 2 1 1 2 1 2 2 4 5 7 8 8 9 8 8 7 6 7 7 6 7 8 10 10 8 9 8 7 7 7 8 8 7 6 7 11 10 8 8 9 9 9 10 11 11 10
1 1 0 1 1 2 1 3 1 2 2 1 3 6 7 8 9 5 5 6 7 7 7 8 10 9 6 1 1 2 2 2 1 2 2 1 1 1 0 0 0 1 1 1 1 1 2 2 5 6 6 5 6 7 8 9 10 8 5 5 7 8 9 9 10 11 12 10 8 7 8 9 9 9 9 8 10 13 11 10 9 10 9 10 10 10 7
2 4 4 3 3 3 3 2 2 3 5 6 3 4 6 10 11 9 8 5 4 10 12 8 8 7 5 3 0 1 0 0 2 1 1 2 0 1 1 3 2 2 2 3 3 2 1 8 4 5 15 17 17 15 14 13 14 14 12 14 14 13 12 13 13 13 11 10 9 10 10 10 9 9 10 10 9 9 10 10 9 10 10 11 11 10 8
4 1 2 4 8 5 3 1 2 4 3 3 4 6 9 9 7 8 6 2 6 9 11 11 9 6 6 4 2 2 2 1 1 1 1 1 2 3 1 1 2 3 2 2 6 13 14 14 14 14 14 14 14 14 14 13 13 15 20 21 18 16 16 15 13 13 14 13 12 13 12 10 10 10 10 9 10 10 10 8 7 8 10 12 12 13 11
2 2 2 1 3 2 1 3 5 2 4 6 7 7 6 8 7 8 6 3 6 7 8 7 3 1 2 6 4 3 1 1 2 2 1 3 3 2 1 3 4 3 4 9 9 6 10 13 12 11 11 11 12 12 12 13 14 17 16 15 17 18 17 18 20 18 14 15 17 15 12 11 9 9 12 14 13 12 10 10 11 12 13 13 12 12 12
2 1 1 3 2 1 7 4 2 6 5 5 7 6 6 5 3 10 10 7 6 6 7 7 6 6 5 3 2 4 3 3 2 3 2 2 1 2 3 3 3 3 5 7 13 11 13 12 11 10 11 11 12 13 14 14 15 16 16 16 17 18 17 17 17 16 17 17 15 14 14 13 12 14 15 14 12 10 9 10 11 12 13 14 13 12 12
3 2 2 1 1 1 2 7 6 8 10 8 8 9 11 11 10 9 10 8 8 8 6 2 4 2 3 4 4 6 9 6 5 4 3 4 5 5 4 6 7 9 9 10 13 12 11 9 9 10 11 12 12 12 13 13 13 13 14 14 14 14 15 16 16 17 17 15 15 14 13 14 12 12 13 14 13 12 11 12 14 13 12 13 13 13 13
4 4 3 3 4 4 6 6 4 11 11 11 12 12 11 11 12 11 8 9 9 7 6 1 1 3 1 2 3 3 4 5 5 3 4 8 6 5 4 8 8 7 10 11 11 10 9 8 9 13 13 14 14 13 13 13 14 14 14 14 14 14 15 16 16 16 15 13 13 12 13 13 12 13 13 13 12 13 14 14 14 14 13 13 14 14 13
1 3 0 1 5 2 5 9 9 8 11 11 10 10 9 10 10 10 11 7 9 5 4 7 4 3 3 3 2 4 3 4 4 8 6 6 5 5 4 6 6 9 9 7 7 8 8 9 9 10 11 12 12 13 13 13 14 14 14 14 14 15 15 17 17 16 16 15 16 16 15 11 9 10 11 12 14 15 15 15 13 13 14 13 13 14 14
3 4 5 6 4 4 5 2 1 2 3 6 8 8 8 11 11 9 9 6 6 13 10 5 3 3 3 8 5 2 3 2 3 4 7 6 4 5 6 7 9 7 6 7 8 7 8 8 10 12 11 11 12 11 12 13 14 14 14 15 15 16 16 15 15 15 14 14 13 12 12 12 12 12 13 15 15 14 13 11 10 12 13 12 12 13 13
Wind_Direction
333 332 333 334 333 330 327 331 335 338 353 349 346 328 342 348 279 284 290 301 336 19 65 24 18 6 343 334 337 334 322 339 337 332 354 341 327 333 32 16 42 340 91 334 39 0 73 18 55 75 77 88 50 338 354 336 332 24 19 340 340 284 133 335 276 333 300 304 311 299 309 303 249 234 206 171 195 194 205 206 183 173 239 202 267 242 260
335 335 335 335 330 327 329 332 334 338 6 344 328 339 333 316 299 314 297 318 338 57 37 357 347 350 337 358 335 341 338 351 353 344 339 350 343 341 324 341 77 319 5 34 44 358 113 31 74 73 16 138 345 11 340 355 360 19 10 6 326 29 315 94 7 344 198 248 301 305 346 113 194 222 220 200 191 199 212 198 91 214 198 181 156 243 246
338 337 337 336 334 331 331 332 329 339 358 12 352 338 315 293 239 230 296 335 4 43 33 19 337 345 341 339 356 348 346 341 332 335 341 8 351 319 349 350 357 31 334 39 31 44 40 97 60 66 92 54 34 350 341 335 1 342 353 9 316 149 260 47 153 201 209 203 204 213 235 310 336 292 262 220 195 186 171 222 151 227 202 182 193 249 251
339 339 338 340 339 336 332 330 331 340 2 11 36 302 325 355 333 311 323 353 5 59 44 37 354 338 350 343 320 3 331 335 332 342 353 17 355 5 1 14 47 34 27 44 27 18 6 66 343 29 11 11 38 333 319 347 303 347 10 2 345 105 354 76 75 125 165 31 252 241 284 301 315 320 308 292 233 197 202 196 202 220 168 209 223 223 236
339 340 340 344 343 343 339 333 336 345 9 39 114 306 179 312 278 321 345 324 64 17 22 9 4 347 339 317 316 339 351 336 320 349 352 4 355 348 46 23 37 8 26 55 36 14 0 348 60 48 15 2 349 307 294 312 348 10 18 350 10 51 16 280 116 98 151 289 289 278 268 265 265 271 285 295 274 226 210 207 225 116 139 240 225 206 215
339 341 343 346 347 345 340 338 339 355 357 32 87 349 280 0 321 20 342 306 315 347 347 353 333 320 328 266 312 332 350 355 1 330 2 345 5 359 22 35 33 12 8 356 61 18 342 34 86 8 21 359 337 352 331 82 1 13 16 340 76 141 263 269 49 318 304 267 270 287 287 237 254 259 266 275 278 267 232 224 205 162 210 234 234 207 214
339 341 343 346 347 344 342 335 341 334 31 147 59 348 280 222 268 283 16 357 324 298 283 316 317 309 322 304 346 350 347 342 2 343 317 345 354 15 1 20 19 352 346 3 336 62 63 334 0 33 356 8 340 344 344 319 21 12 10 356 305 65 257 235 81 306 300 286 279 281 279 294 280 271 268 262 265 265 260 253 230 204 229 231 236 197 206
338 339 341 344 346 344 346 344 355 316 136 108 302 210 284 296 352 309 337 256 286 279 309 301 307 310 325 336 332 337 332 326 340 347 313 324 346 10 25 355 357 336 332 319 41 6 80 46 32 297 32 330 26 263 219 279 356 11 351 339 296 93 288 11 6 337 304 296 290 267 298 294 291 286 272 263 262 270 268 261 250 232 241 234 249 208 221
338 338 338 342 346 347 349 349 328 219 147 272 269 304 182 254 222 263 297 305 268 282 262 287 309 304 341 3 338 336 331 324 336 315 289 244 350 8 347 340 330 324 336 325 296 359 13 307 247 269 268 243 232 96 277 61 334 352 325 327 316 38 257 41 75 2 302 291 321 314 318 306 277 265 266 266 266 272 262 241 232 219 225 218 235 245 228
338 338 338 340 343 350 344 343 349 172 172 276 290 287 326 302 226 162 284 290 305 309 270 275 317 297 136 340 335 332 313 316 327 326 266 170 22 345 327 320 317 265 8 303 258 337 308 272 264 242 240 236 256 242 255 279 240 253 237 307 288 203 196 19 346 336 247 276 302 329 314 323 305 270 281 291 259 238 246 247 228 225 207 216 225 236 195
337 338 339 341 341 345 339 344 353 150 147 241 255 263 283 256 300 307 216 278 251 222 284 260 171 293 333 319 312 308 296 307 312 314 293 334 318 327 311 316 319 285 248 218 15 283 267 269 266 253 239 235 236 236 241 244 237 222 206 217 251 243 223 231 158 153 254 297 315 317 335 272 241 99 204 243 281 291 254 248 241 235 189 233 232 238 201
336 337 338 340 341 344 336 331 340 192 187 232 225 258 266 277 283 252 272 285 293 55 307 270 270 286 291 300 302 297 303 302 306 316 307 306 299 313 309 295 308 315 233 249 309 298 279 255 259 265 249 243 234 232 229 235 235 225 209 201 227 252 233 217 186 118 269 289 338 340 242 245 347 325 21 303 238 24 309 269 254 241 230 240 263 276 244
335 334 335 338 340 340 336 336 329 332 204 222 231 268 261 196 253 257 270 276 279 312 294 287 291 283 284 288 291 282 277 294 304 307 299 293 300 314 313 300 288 248 322 329 325 333 1 290 290 253 258 236 234 228 230 229 234 227 216 208 202 216 220 221 209 176 191 6 83 235 230 304 317 309 319 336 177 12 4 320 259 252 251 218 233 235 236
331 333 333 334 336 335 341 335 327 321 282 192 241 244 261 260 247 263 237 262 282 268 292 291 269 269 284 288 291 300 312 303 296 284 284 269 296 298 300 284 254 306 317 327 324 330 351 18 349 3 323 337 323 284 228 222 224 221 219 208 200 205 207 208 238 182 186 199 202 242 308 321 311 351 2 27 18 321 339 279 289 310 278 182 217 234 240
327 328 330 331 330 331 331 327 334 323 310 214 222 254 261 256 245 242 253 242 280 287 276 271 242 291 310 301 310 311 310 299 325 297 251 273 264 246 266 301 309 302 318 360 342 20 193 9 21 346 318 51 28 267 10 176 228 225 225 214 199 200 194 205 206 233 174 196 262 324 341 266 282 175 112 192 330 260 218 183 289 300 285 246 211 223 232
322 323 323 326 328 328 328 328 336 305 295 277 204 243 260 250 251 248 247 258 305 288 250 260 275 289 302 300 303 290 288 312 296 297 307 267 257 303 311 297 293 298 329 95 126 83 0 105 248 128 254 202 247 344 307 294 320 224 209 207 197 201 220 257 240 251 171 175 195 196 219 237 214 252 254 276 269 240 67 112 270 324 357 345 299 272 254
318 318 318 317 321 321 323 323 316 307 278 228 199 226 259 231 242 232 241 229 213 241 293 297 279 284 294 294 307 273 218 252 322 321 315 332 331 314 299 297 293 316 256 64 340 58 348 197 251 243 264 299 21 211 255 16 283 320 33 164 187 191 205 221 251 249 221 190 200 219 207 256 264 305 326 325 342 9 126 287 260 321 343 327 320 289 273
312 314 315 315 316 317 315 317 317 312 307 228 203 216 249 203 211 234 242 244 261 265 230 238 247 257 243 221 239 240 240 271 266 263 273 304 307 301 300 332 334 303 1 131 227 120 237 234 224 234 249 212 207 306 273 227 246 272 43 143 162 200 207 203 224 231 239 221 241 291 286 280 286 327 320 315 342 88 156 221 293 324 318 320 324 319 299
310 310 309 310 311 313 313 309 307 308 308 291 219 243 254 237 210 197 235 250 229 253 178 258 178 224 211 207 240 256 251 281 290 289 287 302 256 278 342 290 246 281 7 1 346 204 227 236 183 293 249 340 43 225 277 341 274 271 353 343 224 197 202 223 218 230 224 223 221 232 245 226 233 291 304 326 77 206 223 321 314 308 322 330 332 333 332
310 308 307 304 304 305 305 307 304 302 300 264 186 240 235 205 196 189 208 251 241 265 256 248 239 254 239 236 250 252 248 231 208 231 248 265 29 357 340 345 59 250 337 342 32 229 52 262 269 246 324 290 214 270 332 244 252 256 262 259 276 268 223 205 208 216 234 229 235 202 225 244 160 259 141 33 75 269 314 305 307 334 328 339 332 348 341
310 308 307 305 302 301 300 299 299 296 290 291 230 235 262 216 218 203 217 233 267 284 279 224 233 242 245 239 236 234 220 230 194 215 225 239 229 4 268 231 334 1 322 24 160 261 200 282 352 261 234 46 288 352 276 287 286 257 237 261 252 201 224 261 230 207 210 202 212 217 173 153 235 197 124 197 183 277 294 294 295 325 2 347 326 343 346
313 311 308 307 304 301 297 294 294 292 286 281 256 197 251 217 182 200 210 205 242 244 265 289 288 270 255 248 242 228 227 232 234 226 253 259 198 214 258 301 282 304 297 352 339 342 7 249 284 316 294 274 240 241 276 312 276 285 222 218 276 176 222 26 301 318 270 285 279 237 160 133 184 120 133 133 50 324 297 300 288 321 19 332 347 342 342
312 312 311 308 304 300 296 292 287 284 281 274 263 209 242 210 207 196 187 238 238 260 266 273 260 261 259 253 243 239 239 237 247 239 223 238 253 216 232 238 246 190 233 194 204 218 248 272 254 247 283 234 235 269 251 219 282 347 310 219 279 303 299 284 278 278 292 266 254 217 140 128 140 160 129 107 47 332 337 324 310 319 346 335 340 6 347
313 313 312 309 305 303 298 292 287 282 277 269 254 192 234 221 219 181 221 234 254 290 273 240 264 260 232 252 248 226 229 229 223 229 222 206 237 245 219 220 189 231 233 223 182 219 208 189 244 131 232 239 226 250 273 278 230 257 275 289 222 280 349 336 293 278 280 273 177 189 157 176 143 125 114 99 64 351 332 308 290 316 337 333 327 350 35
315 312 309 308 307 305 303 295 289 282 274 271 271 237 227 226 182 186 220 260 230 261 289 298 243 254 259 251 268 241 212 216 209 219 210 203 215 222 225 161 184 204 227 207 150 221 223 240 242 218 255 235 141 253 192 243 284 46 282 265 335 288 45 336 291 280 254 263 309 321 167 163 149 100 73 72 46 317 303 290 294 309 345 333 348 351 4
316 313 309 308 309 306 303 301 292 279 267 263 258 222 212 226 172 183 191 230 236 246 273 280 276 149 100 307 247 224 205 196 205 207 206 204 208 217 231 238 257 220 241 172 151 214 219 231 229 242 249 263 167 240 230 192 255 302 277 271 233 282 335 270 307 301 298 301 292 255 320 65 116 121 112 111 101 299 297 287 315 326 351 357 10 32 26
314 312 312 310 309 307 302 298 295 284 268 251 245 224 224 220 174 179 191 185 236 266 228 249 275 288 279 273 270 263 228 216 210 210 210 206 208 212 221 227 236 248 259 264 203 239 227 241 235 250 214 239 164 220 244 271 243 254 253 263 265 263 258 252 250 263 267 242 261 212 204 214 171 140 134 119 111 227 289 340 23 357 349 344 1 15 34
313 313 313 311 309 307 303 297 293 287 268 247 241 232 217 223 202 198 198 190 190 233 283 273 280 294 330 288 280 254 246 220 213 216 213 211 202 203 208 214 215 226 219 221 241 207 218 231 236 217 232 245 241 253 202 245 254 254 237 253 198 228 254 262 249 235 259 262 267 273 271 179 178 157 140 121 119 103 348 17 23 348 344 341 1 11 15
312 310 313 312 308 305 303 298 289 282 265 245 212 243 247 231 227 208 207 199 196 235 250 271 290 290 271 274 307 268 233 208 209 204 211 212 207 203 204 204 207 214 219 220 235 247 227 235 211 203 203 148 158 250 183 240 221 251 252 250 231 227 237 246 250 263 269 275 280 274 259 194 164 148 135 133 148 134 111 50 64 14 339 327 8 26 26
309 312 315 312 309 304 297 293 290 273 243 196 183 238 280 274 207 211 199 193 186 204 241 260 272 266 284 280 283 272 264 209 209 206 207 209 207 204 205 200 212 207 206 213 200 233 227 246 223 226 205 130 192 283 234 230 239 256 265 261 257 261 261 256 243 251 267 282 282 279 282 274 156 149 141 143 164 136 125 129 94 78 355 331 19 32 32
312 314 314 312 307 304 298 292 280 257 213 158 131 230 252 271 250 175 178 183 173 189 219 222 252 326 295 225 247 273 280 256 222 212 213 210 208 206 204 195 208 185 202 216 215 232 202 233 195 216 162 178 178 239 242 245 262 269 266 252 248 256 265 262 248 245 256 261 266 272 272 224 119 97 99 127 147 148 116 128 87 79 81 13 14 35 35
313 313 312 309 304 302 297 289 273 235 199 186 191 184 193 202 216 148 165 159 149 184 203 254 279 241 268 282 255 264 261 242 244 228 219 193 213 201 202 188 198 187 198 204 216 231 224 229 237 234 206 193 188 246 229 241 257 261 266 264 241 253 257 263 262 249 241 233 232 254 235 162 178 148 159 159 133 117 124 116 92 58 70 76 38 43 58
313 311 308 306 305 305 299 285 259 217 212 221 248 284 288 269 138 149 151 140 144 194 174 220 245 316 275 283 311 248 221 287 217 174 256 183 219 160 207 190 191 182 202 207 193 214 205 192 195 234 221 144 198 228 251 249 246 252 266 276 265 255 255 260 267 259 253 238 212 233 194 171 204 223 133 137 138 141 139 132 137 149 117 88 71 50 29
309 308 308 308 309 311 304 282 236 211 217 221 241 233 243 233 209 179 154 146 160 161 128 187 250 237 259 354 307 324 122 215 258 161 268 229 176 139 178 164 185 206 195 205 209 229 282 223 204 205 144 206 210 243 252 255 252 259 263 261 254 249 250 268 270 265 245 232 195 229 258 41 85 118 114 122 127 130 128 137 135 116 120 105 103 95 72
310 309 308 309 310 316 319 165 141 170 200 227 249 258 255 217 203 188 170 146 143 214 167 232 223 278 303 281 238 275 115 283 284 210 225 289 192 183 203 132 137 204 271 158 255 204 231 225 142 211 230 139 209 234 244 258 268 270 270 270 270 282 297 301 276 242 303 296 227 195 168 156 142 139 136 136 131 135 125 123 136 129 121 110 87 59 51
312 311 310 311 319 23 85 104 120 145 216 226 237 242 236 240 218 192 189 178 171 156 183 213 184 235 165 279 297 322 33 280 226 222 226 275 350 170 214 118 151 238 148 171 236 214 221 162 120 246 143 204 239 228 248 256 275 275 274 281 290 295 283 277 282 295 301 307 249 170 157 150 138 142 133 128 125 124 121 118 131 124 121 107 88 76 61
312 313 315 320 48 120 35 172 190 201 233 224 276 280 264 90 53 103 147 174 229 130 161 172 231 220 179 260 312 275 314 315 325 258 172 189 265 143 166 193 227 199 61 267 236 241 250 102 221 259 235 238 256 263 275 276 275 284 286 287 289 289 284 281 274 280 287 278 185 143 149 138 134 136 135 133 133 134 128 131 147 135 125 118 116 106 106
311 313 324 23 18 19 321 291 198 280 301 295 292 282 132 38 110 97 100 112 175 175 221 161 250 163 133 170 239 238 239 258 348 331 310 234 351 334 288 195 235 247 269 263 247 172 146 199 231 247 269 248 262 272 271 273 274 271 271 273 279 282 284 284 278 274 253 162 135 147 145 139 134 137 129 129 132 130 132 141 134 122 118 120 120 122 118
312 314 31 23 56 295 275 294 337 329 314 276 342 314 14 141 124 194 168 184 185 210 178 210 237 147 172 211 256 305 268 344 349 312 296 343 29 283 261 278 64 299 285 316 282 92 263 240 250 254 271 284 285 274 274 277 274 267 268 276 282 277 276 267 238 236 230 220 183 167 157 147 142 137 132 130 130 125 134 129 118 117 118 118 120 115 108
1 2 356 330 325 260 284 307 331 327 319 14 321 56 333 231 83 290 148 122 262 225 183 251 199 185 182 200 223 291 163 175 202 254 241 315 13 202 334 26 341 0 270 235 276 32 300 299 289 325 285 276 276 293 299 298 301 304 313 316 318 317 264 200 202 196 184 114 97 85 103 128 132 137 140 137 136 132 124 115 114 117 116 114 112 102 99
12 320 337 314 279 313 307 318 325 83 15 3 357 113 53 331 206 233 349 294 256 251 190 252 212 199 166 199 196 235 170 210 257 31 52 325 327 33 103 227 306 329 276 264 338 23 325 303 291 250 261 305 318 332 354 349 347 352 341 346 14 21 30 51 47 115 125 97 104 111 113 110 126 133 136 134 129 125 120 119 116 116 115 114 108 103 104
291 269 268 287 293 288 300 310 40 356 335 109 69 312 281 244 266 48 147 25 317 290 245 212 288 321 153 178 189 196 181 206 188 130 109 339 295 74 216 313 15 283 295 2 357 340 336 296 300 300 299 314 326 339 354 357 355 360 10 17 28 46 47 36 40 60 74 111 122 116 121 140 131 117 124 119 116 117 116 114 107 102 97 92 91 89 88
282 274 246 284 307 301 259 11 327 78 22 349 2 349 6 10 348 355 348 318 284 308 335 178 226 206 105 146 168 213 245 155 176 105 81 120 52 53 84 329 276 347 354 19 310 310 327 315 314 296 302 297 325 356 352 350 348 353 12 26 26 40 45 50 33 56 75 75 80 81 94 97 85 65 50 92 103 92 85 86 94 94 95 91 87 86 86
188 192 273 277 3 301 26 10 313 15 7 8 0 359 341 353 353 1 353 343 338 333 344 356 339 350 6 271 125 145 134 208 194 151 135 170 143 331 253 317 268 282 250 290 334 337 327 317 338 341 321 337 353 351 350 352 348 341 350 20 47 58 60 53 39 53 73 71 65 72 80 78 74 67 68 60 79 91 89 85 87 90 85 84 81 77 69
30 3 15 359 35 320 31 10 348 57 3 352 340 342 344 349 331 335 342 316 330 315 316 335 342 356 353 317 136 202 239 274 189 261 40 173 80 246 61 349 343 43 40 348 346 331 41 45 21 3 26 31 34 37 35 30 23 20 40 59 60 59 54 53 39 38 52 59 62 72 74 74 75 76 74 78 75 77 90 98 103 101 96 92 90 86 72
59 60 17 28 23 9 52 4 329 358 1 348 345 317 319 321 317 307 290 299 312 322 334 329 332 333 4 341 64 332 331 359 12 18 322 304 53 6 348 149 79 10 15 32 32 34 33 37 33 33 30 33 31 31 31 30 25 26 32 36 34 40 48 53 50 45 41 43 45 56 59 62 70 75 78 67 62 62 65 71 80 92 95 90 85 84 80
49 12 83 125 79 316 36 11 349 344 302 304 304 303 293 294 289 263 262 288 305 310 307 307 278 279 349 340 357 356 15 333 35 320 359 34 7 321 23 42 11 6 26 38 42 37 43 37 31 29 25 27 30 32 32 34 34 36 37 36 35 36 39 42 46 45 42 47 50 47 46 47 52 66 71 65 57 51 54 65 68 72 79 81 79 77 74
36 267 61 53 27 325 9 339 299 287 265 253 281 289 283 266 339 356 345 337 303 321 344 332 344 344 15 332 50 359 314 344 31 359 23 340 283 39 357 16 21 8 31 39 45 39 37 26 23 25 26 27 30 34 32 33 35 37 40 39 39 41 43 45 46 41 37 40 43 43 45 41 41 54 61 63 60 52 50 54 59 63 69 71 69 68 70
111 73 50 113 48 49 287 301 339 5 354 348 350 2 5 10 6 352 344 334 349 343 323 341 329 6 1 318 19 4 26 343 33 352 345 17 41 15 348 26 8 38 37 37 47 38 34 23 19 25 27 31 30 34 36 36 38 39 39 41 41 41 44 48 50 49 47 41 43 38 41 48 43 52 58 60 58 49 48 55 58 56 57 65 68 66 62
43 20 29 27 354 7 327 284 355 14 357 2 3 4 355 9 4 354 349 348 339 335 325 25 18 69 319 3 1 8 35 347 31 326 23 35 25 353 359 37 21 26 36 34 34 26 21 21 23 36 31 31 29 28 32 33 36 38 37 39 40 41 41 42 45 47 50 49 51 51 49 54 48 43 53 64 65 61 56 53 56 59 57 57 63 63 60
10 103 105 227 79 321 322 21 1 352 356 358 353 354 349 3 360 348 341 348 324 312 14 27 324 22 353 16 14 31 9 326 20 24 22 21 6 20 17 36 19 32 38 27 26 25 26 17 22 31 31 35 36 35 33 36 40 37 37 39 40 42 41 40 41 44 44 43 43 45 44 39 48 62 59 58 60 61 58 52 52 60 62 60 59 63 62
34 23 355 331 4 14 2 291 17 7 315 327 356 348 353 12 349 336 331 327 351 38 21 327 9 349 21 34 11 332 295 15 34 353 43 40 356 31 33 25 28 21 22 35 30 24 31 29 30 34 33 33 34 33 37 36 40 37 36 37 40 41 40 39 38 39 44 44 42 44 42 40 44 54 58 58 57 59 60 58 51 58 63 62 62 62 64